Tracking 17265 objects as of 5-September-2015
HD Live streaming from Space Station

Track Soyuz TMA-18M
and Space Station

OXP 1

Track OXP 1 now!
10-day predictions
OXP 1 is classified as:


NORAD ID: 22489
Int'l Code: 1993-009A
Perigee: 721.0 km
Apogee: 779.3 km
Inclination: 25.0 °
Period: 99.7 minutes
Semi major axis: 7121 km
RCS: 1.9581 m2 (large)
Launch date: February 9, 1993
Source: United States (US)
Your satellite tracking list
Your tracking list is empty





NASA's NSSDC Master Catalog

Two Line Element Set (TLE):
1 22489U 93009A   15247.51483325  .00000306  00000-0  34419-4 0  9990
2 22489  24.9663   3.8547 0040897 293.8314 114.7368 14.44701809191180

Source of the keplerian elements: AFSPC

N2YO: 195